Regional Weather Roundup
Issued by NWS

Home | Current Version | Previous Version | Text Only | Print | Product List | Glossary Off
Versions: 1 2 3 4 5 6 7 8 9 10 11 12 13 14 15 16 17 18 19 20 21 22 23 24 25 26 27 28 29 30 31 32 33 34 35 36 37 38 39 40 41 42 43 44 45 46 47 48 49 50

043
ASUS43 KDMX 181201
RWRIA

WEATHER ROUNDUP FOR IOWA
NATIONAL WEATHER SERVICE DES MOINES IA
700 AM CDT WED OCT 18 2017

NOTE: "FAIR" INDICATES FEW OR NO CLOUDS BELOW 12,000 FEET WITH NO
SIGNIFICANT WEATHER AND/OR OBSTRUCTIONS TO VISIBILITY.

* - THESE STATIONS ARE NOT NWS STATIONS...THUS NOT UNDER NWS
QUALITY CONTROL.  THEY ALSO DO NOT REPORT WEATHER SUCH
AS PRECIPITATION OR FOG.

IAZ001>003-012>014-020>022-031>034-043>046-181300-
   NORTHWEST IOWA

CITY           SKY/WX    TMP DP  RH WIND       PRES   REMARKS
CARROLL *      CLEAR     54  50  87 SW14      29.92S
CHEROKEE *     CLEAR     47  46  97 S7        29.87F
DENISON *      CLEAR     48  45  87 S7        29.94S
LE MARS *      CLEAR     50  46  87 S8        29.84F HAZE
ORANGE CITY *  CLEAR     50  46  87 S8        29.84F
SHELDON *      CLEAR     48  45  87 S7        29.82F
SIOUX CITY     CLEAR     46  45  96 SE14      29.86F
6HR MIN TEMP:  44; 6HR MAX TEMP:  46;

SPENCER        CLEAR     43  41  93 S5        29.86F
6HR MIN TEMP:  42; 6HR MAX TEMP:  47;

STORM LAKE *   CLEAR     48  45  87 S9        29.88F
$$

IAZ055>058-069>071-079>083-090>094-181300-
   SOUTHWEST IOWA

CITY           SKY/WX    TMP DP  RH WIND       PRES   REMARKS
ATLANTIC *     CLEAR     48  46  93 S8        29.97S
AUDUBON *      CLEAR     50  45  81 S6        29.96S
CLARINDA *       N/A     46  45  93 S6        30.01S
COUNCIL BLFS * CLEAR     52  48  87 S10       29.95S
CRESTON *      CLEAR     48  45  87 S13       30.01S
HARLAN  *      CLEAR     46  45  93 CALM      29.98S
LAMONI         CLEAR     49  45  86 S10       30.03S
6HR MIN TEMP:  49; 6HR MAX TEMP:  55;

RED OAK *      CLEAR     48  46  93 S7        29.98S
SHENANDOAH *   CLEAR     48  45  87 S3        29.99S
$$

IAZ047>049-059>061-072>074-084-181300-
   CENTRAL IOWA

CITY           SKY/WX    TMP DP  RH WIND       PRES   REMARKS
AMES           CLEAR     50  47  89 S8        29.97S
6HR MIN TEMP:  49; 6HR MAX TEMP:  54;

ANKENY *       CLEAR     52  46  82 S5        30.00S
BOONE *        CLEAR     50  46  87 S8        29.96S
CHARITON *     CLEAR     50  45  81 S10       30.02S
DES MOINES     PTCLDY    53  45  74 S10       29.99S
6HR MIN TEMP:  53; 6HR MAX TEMP:  57;

GRINNELL*      CLEAR     50  45  81 S9        30.03S
KNOXVILLE *    CLEAR     52  45  76 S12       30.01R
MARSHALLTOWN   CLEAR     50  45  83 S7        29.98S
6HR MIN TEMP:  49; 6HR MAX TEMP:  56;

NEWTON *       CLEAR     48  45  87 S6        30.01S
PELLA *        CLEAR     53  45  73 S8        30.03S
PERRY *          N/A     47  46  97 S7        29.96S
$$

IAZ004>006-015-016-023>025-035-036-181300-
   NORTH CENTRAL IOWA

CITY           SKY/WX    TMP DP  RH WIND       PRES   REMARKS
ALGONA *       CLEAR     46  46 100 S12       29.90F
CLARION *      CLEAR     48  48 100 S10       29.94R
ESTHERVILLE    CLEAR     42  42 100 S9        29.86F
6HR MIN TEMP:  41; 6HR MAX TEMP:  46;

FORT DODGE *   CLEAR     50  45  83 S7        29.93S
MASON CITY     CLEAR     47  44  90 S12       29.94F
6HR MIN TEMP:  45; 6HR MAX TEMP:  47;

FOREST CITY *    N/A     45  43  93 S5        29.92S
WEBSTER CITY * CLEAR     48  45  87 S7        29.93S
IOWA FALLS *     N/A     50  46  85 S8        29.97S
$$

IAZ007>011-017>019-026>030-037>042-050>054-066-181300-
   NORTHEAST IOWA

CITY           SKY/WX    TMP DP  RH WIND       PRES   REMARKS
CEDAR RAPIDS   CLEAR     48  44  86 S7        30.03S
6HR MIN TEMP:  48; 6HR MAX TEMP:  51;

CHARLES CITY * CLEAR     48  46  93 S8        29.97S
CLINTON *      CLEAR     47  42  83 S7        30.09S
DECORAH *      PTCLDY    52  45  76 VRB7      29.97S
DUBUQUE        CLEAR     46  42  86 S10       30.04S
6HR MIN TEMP:  45; 6HR MAX TEMP:  50;

MONTICELLO *   CLEAR     48  43  81 S7        30.04S
OELWEIN *      CLEAR     46  46 100 S10       30.00S
WATERLOO       CLEAR     48  44  86 S9        29.98S
6HR MIN TEMP:  48; 6HR MAX TEMP:  52;

$$

IAZ064-065-067-068-078-181300-
   EAST CENTRAL IOWA

CITY           SKY/WX    TMP DP  RH WIND       PRES   REMARKS
DAVENPORT      CLEAR     50  41  71 S9        30.10S
6HR MIN TEMP:  49; 6HR MAX TEMP:  55;

IOWA CITY      CLEAR     49  43  80 S3        30.07S
6HR MIN TEMP:  49; 6HR MAX TEMP:  53;

MUSCATINE *    CLEAR     50  43  76 S8        30.08S
QUAD CITIES    CLEAR     52  39  61 S13       30.08S
6HR MIN TEMP:  51; 6HR MAX TEMP:  55;

$$

IAZ062-063-075>077-085>089-095>099-181300-
   SOUTHEAST IOWA

CITY           SKY/WX    TMP DP  RH WIND       PRES   REMARKS
BURLINGTON     CLEAR     48  42  80 S7        30.10S
6HR MIN TEMP:  47; 6HR MAX TEMP:  54;

FAIRFIELD *    CLEAR     50  43  76 S6        30.06S
FORT MADISON * CLEAR     50  43  76 S8        30.10F
KEOKUK *       CLEAR     52  41  66 S8G14     30.10S
OSKALOOSA *      N/A     46  43  90 S8        30.04F
WASHINGTON *   CLEAR     50  45  81 S9        30.08R
$$

ABBREVIATIONS USED IN REMARKS
   TC - TEMPERATURES IN CELSIUS
  WCI - WIND CHILL INDEX
   HX - HEAT INDEX
  VSB - VISIBILITY
$$





USA.gov is the U.S. government's official web portal to all federal, state and local government web resources and services.